, AK

(GMT )
Cape Lisburne

Weather History for PALU - August, 2013

Change the Weather History Date:

Tuesday, August 13, 2013

  Actual Average Record
Temperature  
Mean Temperature 43 °F -  
Max Temperature 47 °F 48 °F 62 °F (2005)
Min Temperature 39 °F 42 °F 39 °F (2001)
Degree Days  
Heating Degree Days 22    
Moisture  
Dew Point 39 °F    
Average Humidity 83    
Maximum Humidity 88    
Minimum Humidity 80    
Precipitation  
Precipitation 0.00 in - - ()
Sea Level Pressure  
Sea Level Pressure 30.09 in    
Wind  
Wind Speed 7 mph (ESE)    
Max Wind Speed 10 mph    
Max Gust Speed -    
Visibility 10 miles    
Events      
Averages and records for this station are not official NWS values.
T = Trace of Precipitation, MM = Missing Value Source: NWS Daily Summary

Daily Weather History Graph

Daily Weather History Graph

Search for Another Location

Airport or City:

Trip Planner

Search our weather history database for the weather conditions in past years. The results will help you decide how hot, cold, wet, or windy it might be!

Date:

Astronomy

Aug. 13, 2013 Rise Set
Actual Time 6:07 AM AKDT 12:06 AM AKDT
Civil Twilight 4:05 AM AKDT 2:01 AM AKDT
Nautical Twilight Sun does not set Sun does not set
Astronomical Twilight Sun does not set Sun does not set
Moon 5:51 PM AKDT (8/13) 11:12 PM AKDT (8/13)
Length of Visible Light 21h 55m
Length of Day
17h 58m
Waxing Crescent, 43% of the Moon is Illuminated
Aug 13
Waxing Crescent
Aug 14
First Quarter
Aug 20
Full
Aug 28
Last Quarter
Sep 5
New

Hourly Weather History & Observations

Time (AKDT) Temp. Windchill Dew Point Humidity Pressure Visibility Wind Dir Wind Speed Gust Speed Precip Events Conditions
12:55 AM 41.0 °F 35.2 °F 35.4 °F 81% 30.14 in 10.0 mi SSW 9.2 mph - N/A   Partly Cloudy
1:55 AM 40.5 °F 34.1 °F 35.2 °F 82% 30.14 in 10.0 mi SW 10.4 mph - N/A   Scattered Clouds
2:55 AM 39.7 °F 33.2 °F 35.2 °F 84% 30.14 in 10.0 mi SW 10.4 mph - N/A   Mostly Cloudy
3:55 AM 39.2 °F 33.6 °F 34.7 °F 84% 30.13 in 10.0 mi SW 8.1 mph - N/A   Clear
4:55 AM 39.9 °F 35.8 °F 35.1 °F 83% 30.12 in 10.0 mi SSW 5.8 mph - N/A   Mostly Cloudy
5:55 AM 39.6 °F 36.3 °F 34.9 °F 83% 30.12 in 10.0 mi SSW 4.6 mph - N/A   Mostly Cloudy
6:55 AM 40.1 °F 38.0 °F 35.1 °F 82% 30.12 in 10.0 mi South 3.5 mph - N/A   Clear
7:55 AM 40.5 °F 38.4 °F 36.0 °F 84% 30.11 in 10.0 mi SSE 3.5 mph - N/A   Clear
8:55 AM 40.8 °F 37.8 °F 37.0 °F 86% 30.11 in 10.0 mi SE 4.6 mph - N/A   Clear
9:55 AM 43.2 °F - 38.5 °F 84% 30.12 in 10.0 mi North 2.3 mph - N/A   Clear
10:07 AM 42.8 °F 41.1 °F 39.2 °F 87% 30.12 in 10.0 mi North 3.5 mph - N/A   Clear
10:55 AM 44.6 °F - 39.2 °F 81% 30.12 in 10.0 mi North 2.3 mph - N/A   Clear
11:55 AM 44.6 °F 43.1 °F 39.2 °F 81% 30.11 in 10.0 mi North 3.5 mph - N/A   Clear
12:55 PM 44.6 °F 43.1 °F 39.2 °F 81% 30.10 in 10.0 mi NE 3.5 mph - N/A   Clear
1:55 PM 44.6 °F 43.1 °F 39.2 °F 81% 30.09 in 10.0 mi ENE 3.5 mph - N/A   Clear
2:55 PM 46.4 °F 42.9 °F 41.0 °F 81% 30.09 in 10.0 mi East 6.9 mph - N/A   Clear
3:55 PM 46.6 °F - 41.9 °F 84% 30.08 in 10.0 mi ENE 6.9 mph - N/A   Clear
4:55 PM 46.9 °F - 41.9 °F 83% 30.07 in 10.0 mi East 9.2 mph - N/A   Clear
5:55 PM 47.1 °F - 42.3 °F 83% 30.06 in 10.0 mi East 9.2 mph - N/A   Clear
6:55 PM 47.1 °F - 41.7 °F 81% 30.05 in 10.0 mi East 9.2 mph - N/A   Clear
7:55 PM 47.5 °F - 42.6 °F 83% 30.05 in 10.0 mi East 10.4 mph - N/A   Clear
8:55 PM 47.5 °F - 41.5 °F 80% 30.04 in 10.0 mi ESE 9.2 mph - N/A   Clear
9:55 PM 47.1 °F - 42.1 °F 83% 30.04 in 10.0 mi East 9.2 mph - N/A   Clear
10:55 PM 45.5 °F 41.8 °F 41.2 °F 85% 30.03 in 10.0 mi SE 6.9 mph - N/A   Clear
11:55 PM 44.8 °F 40.4 °F 41.5 °F 88% 30.04 in 10.0 mi SSE 8.1 mph - N/A   Clear